FW1466 Weather Reports


Display with metric or nautical units.
time (UTC)temp
F
wind
direction
speed
MPH
gust
MPH
rain 1hr
in
rain 24hr
in
rain mn
in
humidity
%
barometer
mb
20260903064543 76 225 0.0 0.0 0.00 0.00 0.00 96 1012.8
20260903063041 76 225 0.0 0.0 0.00 0.00 0.00 96 1012.8
20260903061544 76 225 0.0 0.0 0.00 0.00 0.00 95 1012.8
20260903060037 76 225 0.0 0.0 0.00 0.00 0.00 95 1012.9
20260903054539 77 225 0.0 0.0 0.00 0.00 0.00 94 1012.9
20260903053034 77 225 0.0 0.0 0.00 0.00 0.00 94 1013.0
20260903051531 77 225 0.0 0.0 0.00 0.00 0.00 93 1012.8
20260903050032 78 225 0.0 0.0 0.00 0.00 0.00 92 1012.7
20260903044528 78 224 0.0 0.0 0.00 0.00 0.00 92 1012.6
20260903043027 79 225 0.0 0.0 0.00 0.00 0.00 90 1012.5
20260903041536 79 225 0.0 0.0 0.00 0.00 0.00 89 1012.6
20260903040026 80 224 0.0 0.0 0.00 0.00 0.00 88 1012.6
20260903034531 80 224 0.0 1.0 0.00 0.00 0.00 87 1012.6
20260903033038 81 225 0.0 0.0 0.00 0.00 0.00 87 1012.5
20260903031525 81 224 0.0 0.0 0.00 0.00 0.00 86 1012.3
20260903030024 82 224 0.0 0.0 0.00 0.00 0.00 85 1012.3
20260903024524 82 225 0.0 0.0 0.00 0.00 0.00 85 1012.4
20260903023023 83 225 0.0 0.0 0.00 0.00 0.00 85 1012.3
20260903021525 83 224 0.0 0.0 0.00 0.00 0.00 85 1012.2
20260903020022 83 225 0.0 0.0 0.00 0.00 0.00 85 1012.2
20260903014529 84 238 0.0 2.0 0.00 0.00 0.00 84 1012.1
20260903013031 84 148 0.0 2.0 0.00 0.00 0.00 83 1012.0
20260903011521 85 185 0.0 1.0 0.00 0.00 0.00 82 1011.7
20260903010019 86 80 0.0 1.0 0.00 0.00 0.00 80 1011.6
20260903004537 86 126 0.0 3.0 0.00 0.00 0.00 79 1011.6
20260903003018 87 68 0.0 1.0 0.00 0.00 0.00 77 1011.5
20260903001517 88 67 0.0 2.0 0.00 0.00 0.00 77 1011.6
20260903000017 88 63 0.0 2.0 0.00 0.00 0.00 76 1011.8
20260902234515 89 5 0.0 2.0 0.00 0.00 0.00 75 1011.9
20260902233016 90 348 0.0 3.0 0.00 0.00 0.00 73 1011.7
20260902231517 90 331 0.0 3.0 0.00 0.00 0.00 72 1011.7
20260902230015 91 144 0.0 2.0 0.00 0.00 0.00 71 1011.8
20260902224513 91 138 0.0 2.0 0.00 0.00 0.00 71 1011.9
20260902223012 91 279 0.0 3.0 0.00 0.00 0.00 70 1011.8
20260902221516 92 279 0.0 3.0 0.00 0.00 0.00 69 1012.0
20260902220011 92 279 1.0 3.0 0.00 0.00 0.00 67 1012.0
20260902214509 93 279 1.0 4.0 0.00 0.00 0.00 66 1012.0
20260902213022 93 202 0.0 4.0 0.00 0.00 0.00 64 1012.0
20260902211507 94 157 2.0 5.0 0.00 0.00 0.00 63 1011.9
20260902210014 95 284 2.0 5.0 0.00 0.00 0.00 63 1012.1
20260902204503 95 259 1.0 7.0 0.00 0.00 0.00 60 1012.3
20260902203002 96 193 0.0 2.0 0.00 0.00 0.00 63 1012.4
20260902201600 95 101 0.0 5.0 0.00 0.00 0.00 62 1012.4
20260902200059 94 321 1.0 5.0 0.00 0.00 0.00 61 1012.5
20260902194555 95 120 1.0 7.0 0.00 0.00 0.00 64 1012.4
20260902193056 94 76 1.0 5.0 0.00 0.00 0.00 62 1012.6
20260902191555 95 173 1.0 5.0 0.00 0.00 0.00 63 1012.9
20260902190047 94 254 0.0 3.0 0.00 0.00 0.00 67 1012.8
20260902184646 93 158 1.0 5.0 0.00 0.00 0.00 64 1012.9
20260902183041 94 81 0.0 4.0 0.00 0.00 0.00 65 1013.0
20260902181540 93 331 1.0 4.0 0.00 0.00 0.00 67 1013.1
20260902180038 93 208 1.0 4.0 0.00 0.00 0.00 67 1013.1
20260902174528 92 324 1.0 3.0 0.00 0.00 0.00 69 1013.3
20260902173025 92 131 1.0 6.0 0.00 0.00 0.00 69 1013.2
20260902171523 91 43 0.0 3.0 0.00 0.00 0.00 71 1013.4
20260902170018 90 321 0.0 3.0 0.00 0.00 0.00 72 1013.5
20260902164517 90 22 1.0 3.0 0.00 0.00 0.00 70 1013.5
20260902163013 88 92 1.0 4.0 0.00 0.00 0.00 74 1013.6
20260902161513 88 120 0.0 3.0 0.00 0.00 0.00 74 1013.7
20260902160009 87 63 1.0 3.0 0.00 0.00 0.00 75 1013.9
20260902154507 86 347 0.0 3.0 0.00 0.00 0.00 78 1014.1
20260902153112 85 327 2.0 4.0 0.00 0.00 0.00 78 1014.1
20260902151558 85 246 0.0 3.0 0.00 0.00 0.00 81 1014.1
20260902150052 84 186 0.0 8.0 0.00 0.00 0.00 79 1013.9
20260902144551 85 146 0.0 2.0 0.00 0.00 0.00 78 1013.8
20260902143048 85 148 0.0 3.0 0.00 0.00 0.00 79 1013.8
20260902141547 84 174 0.0 2.0 0.00 0.00 0.00 79 1013.6
20260902140040 83 202 0.0 1.0 0.00 0.00 0.00 81 1013.9
20260902134539 83 207 0.0 4.0 0.00 0.00 0.00 80 1014.1
20260902133033 81 146 0.0 2.0 0.00 0.00 0.00 84 1014.1
20260902131528 78 150 0.0 1.0 0.00 0.00 0.00 88 1014.2
20260902130026 76 154 0.0 1.0 0.00 0.00 0.00 91 1014.3
20260902124523 75 154 0.0 0.0 0.00 0.00 0.00 93 1014.2
20260902123023 74 154 0.0 1.0 0.00 0.00 0.00 94 1014.1
20260902121520 74 154 0.0 0.0 0.00 0.00 0.00 94 1014.1
20260902120019 73 154 0.0 0.0 0.00 0.00 0.00 95 1014.1
20260902114518 73 154 0.0 0.0 0.00 0.00 0.00 95 1014.1
20260902113014 73 154 0.0 0.0 0.00 0.00 0.00 95 1014.0
20260902111514 73 154 0.0 0.0 0.00 0.00 0.00 95 1014.0
20260902110019 73 154 0.0 0.0 0.00 0.00 0.00 95 1014.2
20260902104512 73 154 0.0 0.0 0.00 0.00 0.00 95 1014.2
20260902103010 72 154 0.0 0.0 0.00 0.00 0.00 96 1014.2
20260902101509 72 155 0.0 0.0 0.00 0.00 0.00 96 1014.0
20260902100009 72 154 0.0 0.0 0.00 0.00 0.00 96 1014.0
20260902094508 72 154 0.0 0.0 0.00 0.00 0.00 96 1014.0
20260902093011 72 155 0.0 0.0 0.00 0.00 0.00 96 1013.9
20260902091506 73 154 0.0 0.0 0.00 0.00 0.00 96 1013.7
20260902090005 73 154 0.0 0.0 0.00 0.00 0.00 96 1013.7
20260902084503 73 154 0.0 0.0 0.00 0.00 0.00 96 1013.6
20260902083001 73 154 0.0 0.0 0.00 0.00 0.00 96 1013.6
20260902081606 73 154 0.0 0.0 0.00 0.00 0.00 95 1013.5
20260902080059 73 154 0.0 1.0 0.00 0.00 0.00 95 1013.6
20260902074609 74 154 0.0 0.0 0.00 0.00 0.00 95 1013.4
20260902073057 74 154 0.0 0.0 0.00 0.00 0.00 95 1013.4
20260902071556 74 154 0.0 0.0 0.00 0.00 0.00 95 1013.3
20260902070054 74 154 0.0 0.0 0.00 0.00 0.00 95 1013.4